[Iaude] MPEC J116: 2021 GE226 [a=2.11,e=0.54,i=3.1,H=28.4]

mpec at cfa.harvard.edu mpec at cfa.harvard.edu
Tue May 7 12:59:09 EDT 2024


M.P.E.C. 2024-J116                                  Issued 2024 May 7, 16:57 UT

     The Minor Planet Electronic Circulars contain information on unusual
         minor planets, routine data on comets and natural satellites,
         and occasional editorial announcements.  They are published
    on behalf of Division F of the International Astronomical Union by the
          Minor Planet Center, Smithsonian Astrophysical Observatory,
                          Cambridge, MA 02138, U.S.A.
			  
             Prepared using the Tamkin Foundation Computer Network

                              MPC at CFA.HARVARD.EDU
            URL https://www.minorplanetcenter.net/    ISSN 1523-6714

                                   2021 GE226                                   


Observations:
     K21GM6E* C2021 04 10.58765014 04 45.10 +48 17 10.0          17.4 GVEJ116381
     K21GM6E  C2021 04 10.58774314 04 47.68 +48 17 15.4          17.1 GVEJ116381
     K21GM6E  C2021 04 10.58953714 05 35.96 +48 19 02.2          17.8 GVEJ116381
     K21GM6E  C2021 04 10.58963014 05 38.61 +48 19 08.1          17.4 GVEJ116381
     K21GM6E  C2021 04 10.61486114 17 26.51 +48 42 16.1          17.0 GVEJ116381
     K21GM6E  C2021 04 10.61491914 17 28.36 +48 42 19.9          16.9 GVEJ116381
     K21GM6E  C2021 04 10.63520814 27 34.90 +48 57 46.5          18.2 GVEJ116381
     K21GM6E  C2021 04 10.63526614 27 36.53 +48 57 47.9          18.6 GVEJ116381
     K21GM6E  C2021 04 10.63540514 27 41.12 +48 57 54.0          18.8 GVEJ116381
     K21GM6E  C2021 04 10.63547514 27 42.99 +48 57 57.4          17.6 GVEJ116381
     K21GM6E  C2021 04 10.64466414 32 29.03 +49 03 50.5          17.3 GVEJ116381
     K21GM6E  C2021 04 10.64473414 32 31.07 +49 03 53.5          17.7 GVEJ116381
     K21GM6E  C2021 04 10.66077514 41 07.03 +49 12 20.2          17.7 GVEJ116381
     K21GM6E  C2021 04 10.66083314 41 09.14 +49 12 21.9          17.8 GVEJ116381
     K21GM6E  C2021 04 10.67140014 47 00.26 +49 16 31.6          16.6 GVEJ116381
     K21GM6E  C2021 04 10.67145814 47 02.34 +49 16 33.2          17.2 GVEJ116381
     K21GM6E  C2021 04 10.70076415 04 02.87 +49 21 27.9                VEJ116381
     K21GM6E  C2021 04 10.70082215 04 05.20 +49 21 26.5          17.1 GVEJ116381
     K21GM6E  C2021 04 10.70096115 04 10.07 +49 21 27.0          17.3 GVEJ116381
     K21GM6E  C2021 04 10.70103015 04 12.31 +49 21 26.2          17.5 GVEJ116381
     K21GM6E  C2021 04 10.72610015 19 36.72 +49 16 43.3          16.9 GVEJ116381
     K21GM6E  C2021 04 10.72615715 19 39.12 +49 16 41.7          16.8 GVEJ116381
     K21GM6E  C2021 04 10.74557915 32 03.72 +49 06 36.4          16.8 GVEJ116381
     K21GM6E  C2021 04 10.74564815 32 06.21 +49 06 34.2          17.0 GVEJ116381
     K21GM6E  C2021 04 10.76784715 46 43.21 +48 47 27.1          16.9 GVEJ116381
     K21GM6E  C2021 04 10.76790515 46 45.70 +48 47 22.9          16.9 GVEJ116381

Observer details:
381 Tokyo-Kiso.  Observer J. Beniyama.  1.05-m f/3.1 Schmidt + CCD.

Orbital elements:
2021 GE226                                               Earth MOID = 0.0035 AU
Epoch 2024 Mar. 31.0 TT = JDT 2460400.5                 Veres                   
M 342.08727              (2000.0)            P               Q                  
n   0.32083902     Peri.  200.19942     -0.72771430     +0.68555389             
a   2.1132194      Node    23.12192     -0.62165031     -0.64621749             
e   0.5405981      Incl.    3.08890     -0.28979782     -0.33528916             
P   3.07           H   28.41          G   0.15           U   9                  
Residuals in seconds of arc
210410 381  0.1+  0.4+    210410 381  0.9-  0.0     210410 381  0.8+  0.1+
210410 381  0.8+  0.3+    210410 381  0.2-  0.4-    210410 381  1.6-  0.6-
210410 381  0.7-  0.3-    210410 381  1.8-  0.0     210410 381  0.7-  0.2+
210410 381  0.7+  0.1+    210410 381  0.8-  0.1+    210410 381  1.7+  0.1-
210410 381  1.1-  0.5-    210410 381  1.3+  0.2+    210410 381  0.6+  0.3-
210410 381  0.5+  0.5+    210410 381  0.5-  0.3+    210410 381  1.3-  0.3+
210410 381  0.3+  0.1+    210410 381  0.8+  0.7+    210410 381  1.0-  0.2+
210410 381  1.2-  0.9-    210410 381  0.4-  0.9+    210410 381  0.6+  0.4-
210410 381  1.9+  0.5-    210410 381  2.0+  0.5-

Ephemeris:
2021 GE226               a,e,i = 2.11, 0.54, 3                   q = 0.9708
Date    TT    R. A. (2000) Decl.     Delta      r    Elong.  Phase     V
2024 04 07    07 14 53.7 +25 58 15   0.5672  1.1460    89.5    60.9    29.6
...
2024 04 22    07 41 41.2 +23 35 27   0.5274  1.0610    81.2    69.4    29.6
...
2024 04 30    07 59 51.6 +21 53 30   0.4975  1.0250    77.8    73.9    29.5
...
2024 05 06    08 15 07.6 +20 21 09   0.4717  1.0033    75.8    77.1    29.5
2024 05 07    08 17 48.7 +20 04 13   0.4671  1.0002    75.5    77.6    29.5
2024 05 08    08 20 32.1 +19 46 47   0.4624  0.9972    75.2    78.1    29.5
...
2024 05 14    08 37 45.2 +17 51 07   0.4334  0.9826    73.8    81.1    29.4
...
2024 05 22    09 03 15.3 +14 41 53   0.3922  0.9721    72.9    84.4    29.3
...
2024 06 06    10 01 55.6 +06 15 14   0.3153  0.9813    74.9    87.0    28.9

M. P. C. Staff               (C) Copyright 2024 MPC           M.P.E.C. 2024-J116





More information about the Iaude mailing list